Showing default

SDX02, 62460

Orbit data source: Space-Track

SDX02, 62460 is a payload satellite owned by ISRO (IN) in LEO that was launched on Mon, 30 Dec 2024 UTC via a PSLV launch vehicle from the Sirharikota (SRI). Payload-class satellites include a variety of spacecraft equipped with specific instruments for various scientific and technological missions. These include communications satellites like Starlink; space stations such as the ISS; scientific satellites like the Hubble; Earth observation satellites from companies like Planet Labs, Umbra, and HawkEye 360; GPS; miniature CubeSats for education and research; and military/defense satellites.

Loading next visibility...
Identifier
62460, 2024-253B
Orbit
LEO
Country
Flag of ININ / IND
Related business
Manufacturer
ISRO
Mission
Operational Civil Technology
Bus & Motor
SPADEX, Unknown motor
Mass
220 kg wet, ~180 kg dry
Launch date (UTC)
2024-12-30 (9 months ago)
Launch vehicle
PSLV
Launch site
Sirharikota (SRI)
Object type
Payload
Rocket body
Debris
Shape & HBR
Box + 2 Pan, 1.3 m
Radar Cross Section
0.901 m², Large (>1 m²)

Expand to show TLE details & history
Last TLE update: 9 hours ago

TLE from 9 hours ago
0 SDX02
1 62460U 24253B   25261.00559668  .00027218  00000-0  61588-3 0  9990
2 62460  54.9977 163.4476 0004914 186.7774 173.3191 15.42992179 40187
Epoch: 2025-09-18T00:08Z
TLE epoch observation values (Epoch: 2025-09-18T00:08:03.553Z)
Latitude
0.00004°
Longitude
164.25943°
Altitude
441.712 km
Speed
7.646 km/s
True Right ascension
10h 53m 47s
True Declination
0° 00' 00"
Sunlit
Object was in daylight at epoch
Visualization orbit readout
Latitude
Unknown
Longitude
Unknown
Altitude
Unknown
Speed
Unknown
Apparent Right ascension
Unknown
Apparent Declination
Unknown
Sunlit
N/A
Visualization observer readout
Local Sidereal Time
01:34:28
Azimuth
Unknown
Elevation
Unknown
Doppler factor
Unknown
Orbital elements
Apogee altitude
440.596 km
Perigee altitude
433.897 km
Semi-major axis
6,815.383 km
Eccentricity
0.00049
Inclination
54.9977°
RAAN
163.4476°
Arg. of periapsis
186.7774°
True anomaly
173.32565°
Mean anomaly
173.3191°
Eccentric anomaly
173.32237°
Mean motion
3.85752 °/min
Orbital period
93.32 mins
BSTAR
0.00061588
Loading maneuver chart data...
Computing Atmospheric mass density...
Loading historical data...
Loading historical data...
Loading historical data...
Loading historical data...
Loading historical data...
Loading historical data...
Loading historical data...
Other satellites on launch #253 in the year 2024 (2024-12-30 UTC)

Documentation

Showing up to 5 results
|